Wind_Speed
34 35 34 34 33 30 25 26 20 15 12 15 12 16 18 21 21 18 16 16 13 13 12 11 12 15 18 19 21 25 27 25 28 30 31 24 25 27 24 24 22 27 33 29 27
32 33 33 32 32 30 32 28 23 26 21 18 21 19 17 20 23 16 16 16 12 11 13 13 15 16 17 18 22 24 31 32 34 32 32 27 27 29 29 26 23 23 30 33 25
28 28 30 29 28 31 30 31 26 26 21 24 15 16 21 23 19 15 12 8 7 7 8 8 10 10 11 13 18 23 31 29 30 28 29 29 30 32 31 31 24 23 32 35 32
22 24 26 25 24 25 30 30 27 23 21 17 14 12 15 16 8 7 8 10 9 7 8 7 9 10 10 11 12 23 23 21 23 23 26 30 30 37 36 32 28 25 23 29 40
20 18 21 21 21 21 23 27 23 21 17 19 15 15 12 13 11 11 10 10 8 7 7 7 9 11 11 11 15 18 21 24 26 28 31 32 36 35 43 35 31 21 34 35 32
14 12 14 17 17 17 17 17 23 16 18 15 18 19 13 14 9 6 7 10 7 5 4 4 7 9 9 11 14 17 22 25 29 31 34 38 40 40 46 42 35 27 25 36 34
9 5 7 9 13 12 10 13 22 24 13 14 15 12 10 10 6 4 8 9 7 5 7 9 8 7 10 10 14 17 23 26 27 26 31 31 41 45 45 46 42 35 25 24 28
4 8 4 8 7 12 11 20 22 16 13 11 7 7 6 5 4 6 8 7 6 6 9 12 10 9 14 16 18 20 22 27 21 15 20 19 42 29 33 40 48 48 33 27 31
8 7 5 12 18 18 15 19 16 8 7 8 5 2 4 1 2 4 6 6 7 9 12 13 15 16 18 16 16 12 17 20 22 13 16 22 33 25 25 34 36 48 46 37 28
4 3 6 15 22 22 21 17 16 12 10 6 4 4 3 3 1 1 3 5 10 12 12 10 13 10 11 10 10 9 14 22 27 22 14 21 36 35 26 26 34 29 34 34 39
5 3 9 14 18 20 17 18 7 12 8 6 8 4 2 2 1 3 5 6 8 10 10 10 11 7 11 14 18 20 24 29 29 15 21 28 29 28 26 29 28 31 30 32 32
9 6 11 9 18 19 23 20 16 12 11 9 9 5 5 3 0 4 5 5 5 3 6 10 15 14 16 17 18 23 25 30 30 14 18 25 28 26 19 25 24 21 29 29 26
6 13 12 16 16 18 18 9 11 11 13 10 7 6 6 8 10 9 6 5 6 5 7 13 16 20 20 17 19 19 23 24 24 21 21 20 25 28 20 19 18 18 24 24 23
10 16 14 19 15 15 18 13 12 15 9 6 5 6 9 10 11 14 8 5 6 6 6 7 9 9 9 14 14 19 9 18 21 18 10 9 7 6 12 17 17 17 23 23 20
14 15 13 12 10 12 16 13 21 10 4 5 8 11 12 6 5 9 11 11 6 8 4 6 5 6 4 3 3 11 11 20 24 21 17 19 10 7 11 15 21 23 23 21 18
17 18 15 19 12 14 13 22 17 2 2 5 8 10 9 10 12 12 11 11 7 7 8 8 3 3 7 6 8 15 19 16 10 6 6 21 18 4 6 14 21 16 16 15 14
19 20 13 15 12 18 23 20 7 7 7 6 9 9 9 8 9 11 12 13 8 8 11 10 7 12 7 11 10 16 14 4 5 4 3 8 10 2 7 13 14 16 16 13 17
18 15 16 14 25 25 14 9 10 7 6 12 11 7 7 4 7 9 12 10 9 6 10 10 6 13 15 15 9 12 5 3 4 3 3 7 7 15 4 12 15 18 13 16 28
20 18 12 24 20 14 11 12 8 11 13 10 7 7 6 8 6 4 7 8 9 9 5 7 5 11 17 21 16 11 12 13 2 6 4 8 5 20 10 8 13 8 16 25 26
18 17 26 26 15 16 20 17 14 18 11 9 7 8 3 4 4 3 5 7 8 6 4 7 6 8 12 17 17 13 16 7 6 3 4 4 10 18 23 27 21 28 28 29 21
15 15 22 20 16 22 26 25 20 12 7 7 9 6 6 4 4 3 5 3 7 3 5 8 7 10 12 16 22 24 22 7 6 2 1 1 6 22 29 25 28 22 25 20 17
10 18 22 19 17 24 22 19 13 9 11 10 8 6 5 2 4 3 7 7 6 6 4 6 5 5 7 11 16 22 20 14 7 11 22 6 9 19 22 28 29 28 22 21 18
14 17 19 15 17 20 19 16 11 10 8 12 10 12 11 3 3 6 8 8 8 6 5 5 6 6 5 7 14 22 16 9 6 5 12 6 4 7 8 14 16 18 16 14 12
15 14 15 11 14 19 18 14 12 12 12 10 10 8 6 7 8 6 7 8 9 8 6 4 7 7 6 4 10 14 16 13 6 11 16 18 20 8 9 11 11 10 9 7 5
16 12 10 13 10 12 11 13 9 9 8 6 7 7 3 0 4 7 5 4 5 7 5 6 6 8 8 7 7 11 12 13 17 14 13 20 15 11 8 6 5 5 4 4 5
13 11 9 12 12 11 11 10 8 6 4 7 4 7 7 4 5 5 5 4 4 3 4 3 2 2 4 2 3 8 10 10 14 16 18 15 14 10 7 4 2 1 2 4 7
12 10 10 9 10 9 12 12 8 6 3 3 2 4 4 5 5 6 6 5 4 4 3 0 1 2 1 1 2 2 3 6 6 7 8 6 4 3 1 2 5 5 4 5 9
Wind_Direction
262 260 257 250 251 239 241 257 260 264 286 282 279 309 308 315 313 303 298 286 281 274 266 251 236 226 225 219 225 220 222 237 241 236 242 233 238 217 247 257 243 257 260 265 263
259 255 253 254 250 242 238 248 253 247 260 287 283 297 302 309 309 299 288 277 269 259 255 253 244 237 224 217 220 223 232 240 245 243 244 245 239 237 245 242 241 239 256 262 257
262 254 250 249 248 242 238 242 244 252 263 265 283 293 298 298 300 294 283 269 259 257 260 252 248 247 237 227 227 222 239 247 252 254 244 240 237 234 252 247 241 250 254 257 249
268 256 248 244 243 243 237 232 240 252 257 260 296 310 293 291 295 282 285 276 267 258 264 258 247 243 234 236 226 239 242 250 261 258 249 244 251 235 238 247 238 235 238 256 256
275 260 252 242 238 238 234 234 233 244 248 255 252 311 294 276 280 271 267 265 260 259 267 271 256 248 243 227 228 230 242 242 245 249 251 248 247 256 227 240 237 234 228 234 260
284 259 245 239 235 234 235 219 220 246 239 257 269 284 274 272 276 266 267 270 253 250 274 268 252 266 255 241 239 245 247 255 257 256 253 252 251 251 233 239 238 228 230 238 249
263 263 244 223 224 222 219 191 207 227 233 247 272 270 268 270 279 271 278 261 267 290 294 279 285 263 269 272 261 265 273 273 271 274 269 263 255 248 248 239 246 229 231 237 248
293 287 225 190 174 159 174 189 193 208 228 245 263 250 253 240 257 273 271 270 274 287 283 289 288 285 274 273 276 282 278 282 283 289 273 259 262 272 260 251 239 237 234 242 245
229 273 216 178 154 159 178 173 201 175 215 246 225 233 230 201 255 283 270 282 300 287 279 279 269 262 265 271 283 286 284 285 297 293 288 267 273 278 273 251 241 236 242 245 247
230 258 214 180 171 175 163 180 188 190 211 195 163 152 159 123 289 302 314 327 304 297 296 298 280 290 301 283 260 269 266 271 284 288 284 272 268 272 279 254 243 233 230 233 240
234 200 192 175 174 187 181 182 167 169 177 150 131 131 104 136 354 358 7 322 307 296 298 276 282 290 308 288 300 285 284 288 289 286 285 281 273 268 272 260 241 222 209 223 234
216 160 129 165 173 184 185 177 166 145 140 130 114 100 96 61 76 34 329 347 331 317 302 291 290 304 291 287 281 281 289 289 297 308 285 302 280 262 258 259 230 217 214 224 237
157 158 123 129 142 140 163 165 142 125 125 111 103 87 94 82 63 49 32 357 349 356 325 291 293 289 286 285 284 277 273 284 287 311 289 287 281 257 234 240 200 215 232 230 239
144 152 130 144 128 155 156 151 140 140 111 96 94 66 106 95 67 64 32 31 32 28 358 330 336 316 282 266 262 279 288 286 288 281 288 308 296 302 215 218 234 234 233 228 228
129 142 150 136 139 144 143 151 146 133 79 86 78 93 86 75 85 54 35 37 54 51 37 354 7 331 314 45 250 292 296 285 295 272 276 271 232 312 238 229 223 228 238 228 217
125 136 120 131 147 140 123 138 141 103 61 114 115 100 82 70 62 41 38 24 26 16 354 346 329 328 348 337 302 285 288 297 300 255 250 262 215 4 317 218 216 205 215 196 209
111 121 113 118 132 129 126 128 112 61 111 115 121 110 78 67 36 32 32 28 37 4 1 342 354 3 349 321 291 285 272 276 183 223 23 118 179 14 352 181 188 196 199 205 204
120 117 101 89 116 120 107 115 73 93 103 111 113 81 57 40 56 42 38 25 7 350 330 348 339 352 327 302 328 333 1 323 352 34 52 54 2 355 57 185 187 188 205 179 138
105 112 101 123 109 104 110 97 109 115 112 112 85 54 56 47 50 67 341 3 357 7 1 347 354 22 9 17 6 360 353 11 315 84 84 16 36 40 68 184 190 169 155 136 125
107 104 121 127 108 115 114 93 110 115 111 91 44 30 60 48 27 23 356 347 353 3 4 2 325 360 7 23 35 25 7 329 15 36 67 355 45 43 55 74 99 98 127 130 132
99 114 126 122 100 110 100 105 114 109 112 103 100 89 57 47 31 56 1 329 2 341 23 25 352 359 35 29 23 23 9 355 297 164 133 51 52 60 57 72 86 114 112 114 102
81 106 130 118 111 108 114 121 116 97 111 110 94 82 108 92 48 44 37 22 10 22 40 40 343 337 359 26 23 32 20 36 31 55 90 81 48 51 51 60 62 72 74 72 72
88 103 129 118 110 112 120 123 98 91 104 92 85 76 58 41 52 54 46 40 41 36 18 24 18 347 355 8 29 36 32 36 67 111 56 87 93 81 100 96 94 92 93 95 92
103 100 127 127 125 126 130 128 109 94 95 94 85 80 82 50 55 58 59 45 31 34 31 17 42 59 123 58 31 30 37 39 75 94 95 115 135 152 104 84 83 79 78 79 67
87 97 127 141 129 138 141 144 127 102 91 104 78 68 62 227 49 45 53 45 48 47 46 67 79 77 75 66 50 61 62 54 75 107 123 145 135 130 113 94 73 52 30 358 328
88 92 106 133 141 156 164 170 151 128 115 101 98 64 47 49 56 48 47 39 53 43 72 83 107 57 69 69 59 56 97 71 81 95 111 142 138 139 144 148 152 217 280 305 294
99 99 115 143 158 168 179 190 189 186 179 126 80 36 54 57 54 46 54 44 27 25 31 13 23 334 167 23 232 262 109 135 123 118 129 141 135 132 122 319 306 307 309 299 312
Height
3050 3051 3053 3055 3059 3063 3066 3065 3070 3072 3071 3073 3074 3074 3071 3072 3071 3070 3070 3071 3072 3070 3071 3072 3074 3075 3076 3080 3082 3082 3082 3081 3084 3087 3088 3093 3095 3096 3096 3096 3100 3106 3105 3105 3107
3041 3042 3044 3046 3050 3055 3058 3061 3064 3066 3068 3068 3070 3070 3069 3068 3067 3067 3067 3066 3067 3066 3066 3068 3068 3070 3073 3075 3077 3078 3076 3078 3081 3084 3086 3088 3089 3089 3089 3091 3094 3096 3097 3098 3098
3031 3033 3035 3038 3042 3046 3050 3055 3059 3061 3064 3066 3066 3066 3065 3064 3063 3063 3062 3063 3063 3064 3063 3065 3066 3068 3070 3070 3073 3073 3072 3077 3077 3080 3082 3081 3081 3082 3082 3085 3090 3091 3089 3089 3090
3022 3023 3026 3030 3034 3039 3042 3046 3052 3056 3059 3061 3063 3061 3061 3060 3063 3061 3062 3062 3062 3061 3061 3061 3063 3065 3066 3067 3070 3069 3070 3072 3072 3074 3074 3074 3074 3072 3074 3077 3081 3083 3083 3083 3084
3017 3018 3020 3023 3027 3032 3035 3040 3047 3051 3054 3057 3058 3058 3057 3057 3058 3059 3059 3059 3059 3059 3059 3058 3061 3061 3062 3063 3064 3065 3066 3065 3065 3066 3067 3067 3066 3066 3065 3071 3075 3076 3076 3077 3078
3014 3013 3014 3018 3022 3027 3031 3037 3044 3047 3050 3053 3054 3055 3055 3055 3056 3056 3058 3057 3057 3057 3057 3056 3057 3058 3060 3061 3061 3061 3060 3059 3059 3060 3060 3059 3059 3062 3062 3064 3067 3070 3070 3072 3072
3009 3009 3011 3014 3018 3024 3029 3033 3039 3042 3046 3049 3050 3051 3051 3053 3053 3054 3055 3055 3055 3055 3055 3055 3056 3058 3057 3058 3057 3057 3056 3055 3054 3055 3053 3054 3047 3047 3053 3059 3059 3065 3065 3066 3069
3005 3007 3008 3012 3016 3019 3025 3030 3035 3039 3044 3046 3047 3048 3050 3050 3051 3053 3054 3054 3053 3052 3054 3054 3053 3054 3055 3056 3055 3054 3053 3049 3048 3049 3048 3049 3035 3044 3047 3051 3053 3055 3059 3061 3065
3002 3004 3006 3009 3016 3018 3023 3028 3033 3037 3041 3044 3046 3047 3049 3049 3051 3051 3052 3051 3050 3051 3051 3051 3052 3053 3053 3053 3052 3051 3050 3048 3044 3044 3044 3044 3035 3036 3039 3040 3042 3047 3050 3055 3059
3001 3002 3005 3007 3013 3016 3021 3027 3032 3036 3040 3042 3044 3049 3048 3049 3050 3051 3050 3048 3049 3050 3050 3050 3048 3048 3049 3050 3049 3050 3050 3046 3043 3039 3038 3035 3029 3030 3032 3034 3035 3038 3043 3049 3053
2999 3001 3003 3006 3011 3017 3021 3027 3034 3038 3039 3041 3044 3045 3047 3049 3049 3049 3048 3049 3050 3048 3046 3045 3045 3045 3048 3048 3047 3047 3045 3042 3036 3034 3032 3028 3024 3022 3026 3028 3029 3031 3036 3041 3046
3000 3002 3005 3006 3011 3016 3022 3027 3031 3035 3039 3042 3042 3046 3047 3047 3048 3047 3049 3050 3047 3046 3045 3045 3042 3044 3044 3045 3045 3043 3041 3035 3029 3029 3029 3025 3019 3019 3021 3022 3024 3027 3032 3036 3041
2999 3002 3007 3010 3013 3018 3023 3027 3032 3036 3040 3044 3045 3046 3048 3048 3047 3049 3049 3047 3046 3044 3043 3042 3042 3040 3041 3042 3041 3039 3035 3031 3029 3025 3024 3021 3016 3011 3018 3020 3023 3025 3031 3034 3036
2999 3004 3008 3013 3018 3021 3026 3029 3033 3038 3042 3048 3047 3048 3048 3047 3049 3048 3047 3047 3044 3044 3042 3042 3040 3037 3037 3037 3038 3035 3033 3030 3027 3027 3025 3023 3020 3013 3016 3017 3019 3022 3026 3028 3032
3002 3007 3012 3016 3019 3023 3027 3029 3034 3039 3044 3050 3049 3049 3048 3050 3050 3049 3048 3044 3044 3044 3045 3043 3040 3037 3036 3036 3036 3033 3032 3029 3025 3024 3025 3021 3025 3015 3014 3015 3018 3020 3022 3025 3028
3008 3011 3017 3020 3022 3025 3028 3032 3037 3042 3047 3049 3049 3050 3051 3050 3050 3049 3047 3045 3044 3044 3043 3040 3039 3039 3037 3035 3034 3031 3029 3027 3024 3024 3024 3018 3020 3015 3014 3013 3013 3017 3019 3022 3026
3015 3018 3022 3024 3026 3028 3031 3036 3040 3041 3050 3052 3051 3050 3050 3051 3050 3049 3048 3046 3046 3046 3043 3040 3037 3038 3037 3033 3031 3028 3027 3024 3023 3024 3014 3018 3017 3016 3010 3009 3013 3016 3018 3021 3024
3022 3023 3027 3028 3030 3032 3035 3039 3040 3048 3049 3050 3051 3052 3051 3051 3051 3050 3050 3049 3049 3048 3044 3041 3039 3039 3036 3032 3029 3026 3025 3022 3017 3018 3019 3019 3020 3016 3011 3010 3014 3016 3015 3012 3014
3029 3030 3030 3031 3033 3036 3038 3038 3045 3048 3051 3053 3053 3052 3052 3052 3052 3053 3052 3051 3049 3048 3048 3044 3043 3041 3038 3032 3030 3027 3025 3024 3020 3021 3022 3025 3022 3020 3015 3013 3014 3014 3014 3020 3023
3036 3035 3034 3036 3039 3040 3041 3041 3047 3051 3053 3054 3053 3053 3052 3052 3053 3054 3053 3051 3049 3048 3046 3047 3044 3041 3040 3035 3033 3032 3030 3024 3023 3025 3025 3029 3026 3028 3022 3017 3016 3014 3020 3024 3029
3040 3041 3041 3041 3042 3043 3043 3046 3051 3054 3055 3055 3054 3054 3054 3053 3054 3054 3054 3052 3050 3048 3048 3047 3047 3045 3042 3038 3034 3031 3028 3025 3027 3028 3026 3029 3035 3035 3026 3026 3021 3023 3026 3030 3033
3044 3043 3044 3044 3046 3045 3048 3051 3054 3056 3055 3055 3056 3055 3055 3054 3055 3055 3054 3052 3051 3049 3050 3048 3047 3045 3045 3042 3038 3034 3031 3029 3028 3033 3031 3034 3042 3037 3035 3033 3033 3035 3038 3039 3041
3047 3046 3048 3049 3049 3049 3052 3055 3057 3057 3057 3057 3058 3058 3056 3056 3057 3056 3055 3054 3053 3051 3049 3049 3049 3047 3044 3045 3041 3036 3034 3032 3031 3031 3033 3037 3047 3045 3043 3043 3042 3042 3044 3046 3046
3048 3050 3052 3053 3052 3052 3054 3056 3058 3059 3059 3060 3059 3058 3058 3058 3058 3058 3057 3055 3054 3052 3051 3051 3049 3049 3050 3050 3047 3042 3038 3034 3031 3031 3037 3041 3045 3047 3046 3045 3046 3046 3046 3047 3046
3049 3051 3052 3054 3055 3056 3057 3058 3059 3060 3061 3061 3061 3060 3058 3058 3058 3057 3056 3055 3055 3053 3053 3052 3052 3051 3051 3050 3048 3046 3043 3040 3037 3038 3039 3044 3046 3047 3048 3048 3048 3047 3047 3047 3047
3050 3052 3053 3053 3055 3057 3058 3059 3060 3061 3062 3061 3061 3060 3059 3057 3057 3057 3056 3055 3055 3055 3054 3053 3054 3053 3053 3051 3049 3049 3048 3045 3043 3043 3043 3046 3047 3048 3049 3050 3050 3049 3048 3047 3047
3052 3051 3053 3055 3056 3058 3059 3060 3061 3061 3062 3062 3062 3061 3059 3058 3057 3057 3056 3055 3055 3055 3054 3054 3053 3053 3053 3053 3051 3051 3048 3048 3047 3046 3046 3047 3048 3047 3047 3047 3047 3048 3048 3049 3049